SCP
0 0 0 0 0 0 0 0 0 0 0 0 0 0 0 0 0 0 0 0 0 0
0 0 0 0 0 0 0 0 0 0 0 0 0 0 0 0 0 0 0 0 0 0
0 0 0 0 0 0 0 0 0 -0 -0 -0 0 0 -0 -0 0 0 0 0 0 0
0 0 0 0 0 0 0 0 0 -0 -0 -0 -0 -0 -0 0 -0 0 0 0 0 0
0 0 0 0 0 0 0 0 -0 -0 -0 -0 -0 -0 0 0 0 0 0 0 0 0
0 0 0 0 0 -0 -0 -0 -0 -0 -0 -0 -0 -0 -0 0 -0 0 0 0 0 0
0 0 0 0 0 0 -0 -0 -0 -0 -0 -0 -0 -0 -0 0 0 0 0 0 0 0
0 0 0 0 0 0 0 0 0 0 0 0 0 -0 -0 -0 0 0 0 0 0 0
0 0 0 0 0 0 0 0 0 -0 0 0 0 -0 -0 -0 -0 0 0 0 0 0
0 0 0 0 0 0 0 0 0 0 0 0 0 0 -0 -0 0 0 -0 0 0 0
0 0 0 0 0 0 0 0 0 0 0 0 0 0 0 0 0 0 0 0 0 -0
0 0 0 0 0 0 0 0 0 0 0 0 0 0 0 0 0 -0 -0 -0 0 0
0 0 0 0 0 0 0 0 0 0 0 0 0 0 0 0 0 0 0 0 -0 -0
0 0 0 0 0 0 0 0 0 0 0 0 0 0 0 0 0 0 0 -0 -0 -0
Wind_Speed_500mb
29 31 32 30 32 36 40 37 31 29 30 34 40 46 48 44 46 43 45 49 52 52
26 27 27 27 28 31 31 31 29 28 28 32 37 43 51 54 51 48 43 46 50 50
21 22 23 25 25 26 27 29 30 30 33 36 38 43 49 53 55 53 48 45 48 42
19 19 21 24 24 23 25 29 32 33 33 34 36 38 40 44 46 48 43 45 44 47
15 17 18 21 22 21 18 20 26 31 34 37 38 37 37 36 37 40 40 39 45 39
15 18 17 16 18 25 26 26 28 32 36 35 36 36 31 25 27 31 31 29 35 36
12 12 14 13 12 16 22 26 25 23 25 27 25 25 26 20 23 27 27 27 28 31
11 11 9 8 7 9 11 15 18 16 15 15 14 12 12 14 15 19 22 24 24 25
11 14 13 14 14 16 19 21 24 25 24 22 20 19 10 2 4 12 12 12 13 13
10 14 17 19 21 21 24 26 27 28 31 32 32 29 25 23 19 11 9 12 12 18
11 12 13 15 14 16 17 17 19 20 20 22 22 22 24 27 26 29 31 30 28 25
4 4 7 8 7 8 10 12 13 13 14 15 16 18 18 17 15 15 14 15 16 15
10 9 8 7 9 11 11 11 12 12 11 12 12 12 13 12 12 12 12 11 10 9
19 17 15 13 11 11 10 10 10 10 10 8 8 9 10 9 10 9 9 10 9 8
Wind_Direction_500mb
310 308 304 310 313 315 313 311 304 294 287 283 269 262 264 268 266 261 258 245 250 249
307 304 314 310 310 313 313 307 305 297 290 283 282 275 267 265 265 267 262 240 249 243
310 310 308 307 310 313 314 308 302 298 298 295 287 282 273 267 264 263 264 243 255 233
312 306 303 305 312 324 319 311 311 313 315 308 303 297 288 280 270 262 263 256 257 239
315 307 303 301 312 314 315 308 305 305 303 303 302 302 297 286 264 254 257 257 245 233
327 313 310 308 306 307 310 311 312 312 309 308 306 299 292 298 279 266 256 250 237 231
345 334 327 325 317 311 316 318 320 321 317 307 300 297 296 285 271 261 256 257 249 241
25 31 26 10 10 8 354 356 2 358 345 342 342 325 295 296 270 259 264 263 256 249
46 52 58 49 48 50 47 45 41 41 31 27 21 19 17 355 267 256 257 241 224 227
67 70 72 64 59 57 58 58 57 59 57 58 55 53 51 56 57 67 121 131 136 126
75 74 71 75 67 54 53 56 50 44 45 53 61 64 66 61 63 65 65 69 67 69
90 63 28 20 29 35 29 28 34 40 41 37 35 45 47 51 53 67 81 87 93 94
251 262 272 289 310 327 343 355 1 11 21 22 29 29 36 40 48 50 60 70 79 90
257 258 255 257 268 284 298 309 319 330 343 0 16 20 23 22 19 14 17 24 32 42
Wind_Speed_850mb
29 31 32 30 32 36 40 37 31 29 30 34 40 46 48 44 46 43 45 49 52 52
26 27 27 27 28 31 31 31 29 28 28 32 37 43 51 54 51 48 43 46 50 50
21 22 23 25 25 26 27 29 30 30 33 36 38 43 49 53 55 53 48 45 48 42
19 19 21 24 24 23 25 29 32 33 33 34 36 38 40 44 46 48 43 45 44 47
15 17 18 21 22 21 18 20 26 31 34 37 38 37 37 36 37 40 40 39 45 39
15 18 17 16 18 25 26 26 28 32 36 35 36 36 31 25 27 31 31 29 35 36
12 12 14 13 12 16 22 26 25 23 25 27 25 25 26 20 23 27 27 27 28 31
11 11 9 8 7 9 11 15 18 16 15 15 14 12 12 14 15 19 22 24 24 25
11 14 13 14 14 16 19 21 24 25 24 22 20 19 10 2 4 12 12 12 13 13
10 14 17 19 21 21 24 26 27 28 31 32 32 29 25 23 19 11 9 12 12 18
11 12 13 15 14 16 17 17 19 20 20 22 22 22 24 27 26 29 31 30 28 25
4 4 7 8 7 8 10 12 13 13 14 15 16 18 18 17 15 15 14 15 16 15
10 9 8 7 9 11 11 11 12 12 11 12 12 12 13 12 12 12 12 11 10 9
19 17 15 13 11 11 10 10 10 10 10 8 8 9 10 9 10 9 9 10 9 8
Wind_Direction_850mb
310 308 304 310 313 315 313 311 304 294 287 283 269 262 264 268 266 261 258 245 250 249
307 304 314 310 310 313 313 307 305 297 290 283 282 275 267 265 265 267 262 240 249 243
310 310 308 307 310 313 314 308 302 298 298 295 287 282 273 267 264 263 264 243 255 233
312 306 303 305 312 324 319 311 311 313 315 308 303 297 288 280 270 262 263 256 257 239
315 307 303 301 312 314 315 308 305 305 303 303 302 302 297 286 264 254 257 257 245 233
327 313 310 308 306 307 310 311 312 312 309 308 306 299 292 298 279 266 256 250 237 231
345 334 327 325 317 311 316 318 320 321 317 307 300 297 296 285 271 261 256 257 249 241
25 31 26 10 10 8 354 356 2 358 345 342 342 325 295 296 270 259 264 263 256 249
46 52 58 49 48 50 47 45 41 41 31 27 21 19 17 355 267 256 257 241 224 227
67 70 72 64 59 57 58 58 57 59 57 58 55 53 51 56 57 67 121 131 136 126
75 74 71 75 67 54 53 56 50 44 45 53 61 64 66 61 63 65 65 69 67 69
90 63 28 20 29 35 29 28 34 40 41 37 35 45 47 51 53 67 81 87 93 94
251 262 272 289 310 327 343 355 1 11 21 22 29 29 36 40 48 50 60 70 79 90
257 258 255 257 268 284 298 309 319 330 343 0 16 20 23 22 19 14 17 24 32 42